Wind_Speed
26 28 31 33 31 30 34 32 31 30 28 27 27 28 28 29 27 27 27 27 26 26 28 29 28 29 31 28 27 28 28 27 31 27 27 23 22 24 15 14 15 17 18
28 29 31 30 31 32 29 28 30 28 27 26 26 26 27 27 26 26 27 28 27 27 27 28 29 30 29 29 26 26 26 26 29 29 26 24 23 23 13 13 12 13 14
29 29 30 29 30 31 29 29 28 26 25 25 25 25 24 26 27 29 29 29 29 29 29 28 29 30 28 26 24 25 27 27 27 30 27 25 24 24 16 13 13 14 17
29 29 29 29 28 30 27 27 26 25 24 24 23 24 26 27 29 31 31 30 30 29 28 28 29 30 30 29 28 27 28 30 29 28 28 26 25 22 19 10 11 12 11
28 29 29 28 29 26 26 26 23 22 22 23 24 25 26 26 27 28 28 29 30 29 29 29 29 31 32 32 35 34 32 33 33 32 29 28 25 22 16 11 12 8 10
26 28 27 28 24 25 26 24 23 22 21 22 24 26 27 28 27 25 26 29 30 30 33 34 34 34 35 36 36 36 36 37 35 37 34 31 25 23 19 12 13 13 10
26 26 27 24 24 26 25 23 23 21 22 24 25 26 27 28 27 24 27 30 34 35 35 36 36 34 33 30 29 29 28 28 29 35 35 30 25 21 20 14 13 11 9
25 24 23 25 24 23 22 21 21 21 23 25 26 27 27 28 28 30 32 35 35 35 36 35 34 31 29 28 27 24 21 22 23 24 29 27 21 18 18 13 10 11 10
22 22 21 20 22 22 20 20 19 20 21 25 26 26 29 31 31 31 33 35 34 34 33 31 30 29 27 27 27 25 23 21 20 21 22 21 17 14 14 9 9 11 13
19 18 20 21 20 20 19 19 20 22 23 23 27 30 30 31 31 30 31 33 32 33 31 31 28 26 26 26 26 24 23 21 20 16 17 15 13 10 5 9 9 8 15
16 18 18 18 18 19 20 21 22 22 22 24 30 31 30 30 30 32 33 32 32 32 31 28 28 27 27 26 26 25 23 19 17 16 11 11 12 11 13 12 8 7 7
16 17 17 18 17 19 20 20 22 23 23 25 24 26 29 32 30 31 31 30 28 30 31 31 29 28 27 26 24 24 23 20 16 13 10 6 8 11 14 16 12 7 6
17 18 17 18 19 19 20 20 21 23 25 25 25 28 29 28 28 30 30 26 25 28 28 30 28 29 28 26 23 21 20 18 15 12 9 4 5 7 8 8 8 6 9
17 18 18 18 19 18 19 19 21 24 26 25 27 28 30 32 30 28 27 22 23 25 26 29 27 27 28 25 23 22 19 17 15 12 8 4 4 5 6 5 8 9 8
18 18 19 19 20 19 19 20 23 26 26 27 30 31 30 30 30 29 26 23 22 27 32 34 27 26 24 21 21 21 21 19 16 13 9 3 3 4 5 6 6 8 12
17 18 19 18 17 19 21 21 23 25 27 29 31 33 35 34 31 27 22 19 21 27 28 30 28 28 28 24 22 21 19 20 18 15 10 3 3 4 5 6 7 8 17
17 17 17 17 16 18 20 22 26 27 28 31 33 35 36 32 28 24 16 17 21 25 28 30 31 27 28 26 24 23 20 20 18 17 12 5 4 5 6 6 7 9 13
16 17 16 16 18 21 20 23 27 28 29 32 34 36 35 30 24 19 16 16 20 25 29 31 32 30 31 27 24 25 23 19 16 15 12 7 5 6 6 6 6 6 8
15 14 15 16 18 20 22 24 26 25 27 29 32 33 30 26 22 20 19 17 21 26 27 28 33 29 33 30 26 24 23 20 17 13 10 7 4 5 6 7 8 6 5
14 14 14 15 18 21 23 25 24 25 27 30 32 32 28 25 22 21 19 17 22 28 30 32 30 33 32 27 25 24 23 19 15 12 10 6 4 5 7 8 10 8 8
13 16 16 17 20 21 25 26 24 26 26 29 30 31 31 29 27 25 20 19 23 28 32 33 33 32 31 30 30 28 25 21 16 11 12 11 7 6 8 10 12 10 10
14 15 16 17 19 20 24 26 27 26 26 28 29 30 29 28 25 21 18 21 25 29 32 29 35 33 35 32 30 26 22 18 15 12 10 13 14 11 11 13 13 13 12
13 14 16 18 21 22 26 26 25 25 27 31 32 31 29 28 22 19 21 24 28 31 32 31 35 36 36 32 27 22 20 17 13 9 10 11 14 16 15 15 15 14 14
13 14 16 18 20 21 25 26 27 26 27 32 32 30 28 26 23 23 24 26 29 29 30 35 36 39 35 26 18 20 21 22 18 11 3 13 14 18 18 17 18 16 16
13 13 16 19 20 21 24 27 27 26 27 31 32 29 28 25 25 25 24 26 30 30 33 36 38 36 30 19 17 20 19 24 23 16 8 8 14 16 20 18 17 18 18
13 14 16 19 20 22 25 27 27 27 27 31 31 29 28 26 26 24 25 28 30 32 34 38 37 34 24 20 17 23 23 25 24 20 14 11 16 18 19 19 18 21 19
Wind_Direction
334 330 328 328 328 325 323 321 322 323 323 322 324 325 327 326 334 327 323 322 318 316 315 314 313 309 308 306 306 310 312 314 312 315 312 310 309 310 305 310 296 306 317
332 329 327 328 327 327 327 324 324 325 323 323 327 326 330 329 330 320 324 322 319 319 317 315 312 309 308 308 312 312 312 313 310 312 315 314 306 309 306 302 286 302 303
327 325 325 326 325 327 325 326 323 324 325 326 326 330 334 331 328 329 327 323 326 323 320 318 314 310 309 310 310 308 305 306 306 306 309 311 312 308 310 284 291 289 298
322 323 324 324 326 325 323 325 324 324 324 327 330 335 335 331 328 328 324 324 325 323 320 318 315 313 310 310 305 303 301 300 302 301 303 304 303 308 312 276 253 273 293
321 322 322 327 323 322 323 323 323 325 327 331 334 335 335 333 329 328 325 326 326 324 322 319 314 310 307 306 304 303 301 299 298 297 297 293 297 300 313 281 255 253 279
319 323 326 325 323 322 324 325 327 329 330 333 336 336 335 334 337 333 330 328 326 327 324 319 314 308 305 304 302 300 301 299 296 292 290 291 298 303 300 290 260 241 245
322 325 325 327 326 324 325 328 328 331 334 334 335 333 335 335 334 334 338 336 335 334 330 324 320 317 316 314 310 308 305 299 295 290 290 289 292 295 293 289 264 249 230
325 324 326 326 326 325 327 328 330 333 334 332 331 334 333 336 339 345 344 341 339 339 336 332 330 329 330 329 325 321 316 305 299 290 287 287 280 281 286 297 269 240 242
322 323 325 327 326 324 326 325 325 330 334 331 328 333 335 341 344 348 343 336 336 338 341 340 335 334 338 335 333 331 326 319 308 297 289 283 267 263 270 281 276 240 216
325 327 326 326 324 326 326 323 328 333 331 331 331 333 338 341 342 344 335 336 335 336 343 342 337 337 341 340 339 337 336 334 330 315 295 282 263 256 250 272 271 250 204
324 325 325 325 327 330 330 331 329 328 332 335 334 334 337 337 345 342 337 333 332 337 342 342 341 342 343 341 342 342 337 334 332 333 318 276 246 226 225 248 255 253 215
324 325 326 328 331 331 329 332 328 328 336 332 333 333 337 336 342 339 334 328 330 333 339 342 342 346 346 341 342 342 341 338 334 334 332 299 248 228 225 237 250 236 212
326 327 329 331 331 333 332 333 330 332 333 334 341 338 339 338 338 336 328 322 326 336 348 347 345 349 347 345 341 340 340 343 342 342 337 305 246 230 237 236 203 217 184
328 330 330 329 327 333 331 330 334 337 334 338 343 341 337 337 335 332 323 314 328 348 351 348 350 348 348 346 350 351 344 342 348 346 337 299 230 222 219 218 201 197 168
330 331 329 330 334 337 329 335 338 335 336 345 346 339 339 334 330 331 326 325 344 352 349 350 348 347 349 351 352 354 358 352 349 349 341 315 227 204 205 193 189 178 165
330 330 330 330 337 335 335 338 336 335 345 348 343 339 339 336 333 331 328 338 353 347 344 342 349 347 352 356 353 355 355 358 354 349 342 313 233 206 197 192 188 185 190
328 332 332 332 338 337 330 342 339 341 345 345 343 340 337 334 335 332 333 344 349 343 348 349 338 339 337 337 336 340 342 345 345 344 336 312 247 211 204 208 209 211 203
331 333 332 340 342 335 341 347 335 339 343 340 339 337 334 337 337 338 345 350 347 342 343 339 349 347 345 335 325 329 321 322 327 335 339 329 267 227 217 209 200 199 199
335 334 339 341 339 341 350 332 340 340 341 339 338 335 339 341 341 342 347 345 341 337 341 342 342 339 338 337 335 329 325 317 310 302 317 317 296 237 212 195 176 159 157
338 337 333 340 346 350 335 338 345 344 346 341 337 341 350 350 347 342 337 331 334 336 344 341 340 343 341 340 340 337 332 326 314 283 274 273 258 229 206 186 175 161 149
339 337 336 347 346 341 333 344 350 346 349 341 343 350 350 348 348 347 343 339 335 338 341 342 344 339 338 336 332 330 327 321 310 293 255 235 221 202 192 181 171 162 148
343 336 341 339 338 341 335 345 348 347 351 343 352 355 350 347 347 349 352 346 343 337 338 340 342 343 343 339 338 336 333 321 308 283 255 228 214 203 185 181 171 166 157
341 334 342 340 344 342 338 343 344 349 351 354 356 356 351 351 355 351 346 343 342 343 347 342 339 342 343 343 345 352 357 349 332 291 236 213 202 195 191 185 169 166 167
336 338 342 345 347 344 338 343 351 352 350 355 357 354 351 357 355 347 341 340 340 342 350 349 346 346 350 357 10 13 19 16 13 10 231 199 190 186 185 183 170 165 166
336 339 348 348 353 344 342 348 354 353 352 354 354 352 355 356 354 348 345 342 344 349 349 353 350 353 1 13 29 27 33 26 24 30 60 157 176 172 180 177 176 178 171
335 350 345 355 354 348 350 353 355 354 353 354 354 352 356 356 353 353 354 352 352 354 350 352 359 2 14 22 36 31 37 35 28 33 52 105 147 155 161 168 166 167 167
Height
3150 3146 3143 3138 3134 3131 3127 3122 3118 3113 3108 3103 3098 3093 3087 3083 3078 3074 3068 3064 3059 3055 3050 3046 3041 3036 3033 3029 3024 3019 3013 3009 3004 3004 2998 2995 2992 2988 2988 2986 2984 2982 2980
3146 3143 3139 3135 3131 3126 3122 3118 3113 3108 3103 3098 3093 3088 3084 3079 3074 3068 3064 3060 3055 3049 3045 3040 3035 3030 3026 3022 3018 3013 3009 3004 3000 2996 2994 2990 2986 2982 2981 2980 2979 2977 2976
3142 3139 3134 3130 3126 3122 3117 3113 3108 3104 3098 3094 3090 3084 3080 3075 3070 3064 3059 3055 3049 3043 3039 3034 3029 3024 3019 3015 3012 3008 3004 2999 2996 2991 2988 2985 2981 2977 2977 2975 2973 2973 2972
3137 3133 3130 3126 3121 3116 3112 3108 3103 3100 3095 3090 3086 3081 3075 3072 3066 3061 3056 3051 3045 3039 3033 3028 3023 3017 3012 3009 3005 3002 2997 2993 2989 2986 2982 2979 2976 2973 2971 2970 2969 2968 2968
3132 3129 3125 3121 3116 3112 3108 3104 3100 3095 3091 3086 3082 3078 3073 3068 3062 3057 3052 3046 3040 3035 3029 3022 3017 3011 3006 3001 2996 2992 2988 2984 2981 2977 2975 2972 2970 2968 2967 2965 2964 2964 2964
3128 3124 3120 3116 3112 3108 3104 3100 3096 3092 3088 3084 3079 3075 3070 3064 3059 3053 3047 3041 3035 3028 3022 3015 3010 3004 2998 2992 2988 2984 2979 2973 2969 2966 2965 2964 2964 2962 2961 2960 2959 2959 2960
3123 3119 3115 3111 3108 3105 3101 3097 3093 3089 3084 3080 3075 3071 3065 3060 3055 3050 3043 3036 3029 3022 3015 3008 3002 2996 2990 2984 2979 2975 2971 2966 2962 2957 2954 2955 2956 2956 2955 2955 2954 2954 2956
3119 3115 3112 3108 3105 3101 3097 3094 3090 3086 3082 3077 3072 3067 3061 3055 3049 3043 3037 3030 3025 3018 3011 3003 2995 2989 2983 2977 2973 2969 2965 2960 2955 2952 2947 2947 2948 2950 2949 2951 2951 2951 2953
3115 3111 3108 3105 3101 3098 3095 3091 3087 3082 3077 3073 3067 3063 3056 3049 3044 3038 3032 3027 3022 3015 3007 3000 2993 2986 2979 2974 2969 2963 2959 2954 2949 2945 2942 2941 2942 2943 2944 2945 2946 2947 2949
3110 3107 3105 3101 3098 3095 3091 3087 3083 3079 3075 3069 3061 3056 3051 3045 3040 3034 3028 3023 3018 3012 3004 2997 2991 2984 2977 2971 2965 2959 2954 2949 2945 2941 2938 2936 2937 2939 2942 2942 2942 2942 2944
3107 3104 3102 3098 3095 3091 3088 3084 3080 3076 3072 3066 3058 3052 3045 3041 3035 3029 3024 3018 3013 3008 3000 2995 2988 2980 2974 2968 2962 2956 2951 2946 2941 2937 2934 2932 2933 2935 2938 2939 2939 2939 2941
3104 3102 3099 3095 3091 3088 3085 3081 3077 3073 3068 3063 3059 3051 3043 3034 3030 3025 3021 3016 3010 3004 2997 2990 2984 2977 2971 2965 2959 2954 2949 2943 2939 2935 2932 2930 2931 2932 2934 2936 2937 2937 2938
3102 3099 3095 3092 3088 3085 3082 3078 3074 3069 3064 3059 3054 3048 3042 3036 3029 3023 3019 3014 3008 3002 2995 2988 2982 2975 2969 2963 2957 2952 2947 2942 2938 2933 2931 2929 2929 2930 2932 2933 2934 2936 2937
3099 3096 3093 3089 3086 3082 3079 3074 3070 3065 3060 3055 3050 3044 3037 3030 3025 3020 3016 3011 3005 3000 2994 2988 2980 2974 2967 2961 2956 2950 2945 2940 2936 2932 2929 2928 2927 2928 2930 2931 2932 2934 2937
3096 3093 3090 3087 3083 3080 3076 3072 3066 3061 3057 3052 3046 3039 3033 3028 3021 3015 3011 3006 3001 2995 2989 2983 2978 2972 2966 2960 2955 2949 2944 2940 2935 2931 2929 2927 2927 2927 2928 2930 2931 2933 2935
3094 3091 3088 3085 3081 3077 3073 3069 3064 3058 3053 3048 3042 3035 3028 3021 3015 3010 3006 3002 2997 2993 2988 2981 2975 2969 2963 2958 2953 2949 2944 2940 2935 2931 2928 2926 2926 2926 2928 2929 2931 2933 2934
3092 3089 3085 3082 3078 3075 3071 3065 3059 3055 3051 3045 3039 3032 3024 3019 3013 3008 3004 3000 2996 2991 2985 2979 2972 2966 2961 2956 2951 2947 2943 2938 2935 2931 2928 2926 2925 2925 2926 2928 2930 2931 2933
3090 3087 3084 3080 3076 3073 3068 3062 3057 3053 3048 3042 3036 3029 3021 3015 3010 3005 3001 2998 2994 2988 2982 2976 2970 2963 2957 2951 2947 2943 2939 2935 2932 2930 2927 2924 2924 2924 2925 2926 2927 2929 2930
3087 3084 3081 3078 3074 3070 3065 3060 3057 3052 3047 3041 3035 3029 3020 3013 3007 3002 2999 2995 2990 2985 2979 2973 2967 2961 2954 2948 2942 2937 2933 2930 2927 2925 2924 2923 2922 2922 2923 2924 2926 2928 2928
3085 3083 3079 3076 3072 3068 3063 3059 3055 3050 3045 3038 3031 3024 3018 3011 3006 3002 2997 2992 2988 2981 2976 2970 2964 2957 2950 2944 2938 2933 2928 2923 2920 2919 2919 2919 2920 2920 2922 2923 2925 2927 2928
3084 3081 3077 3073 3070 3067 3061 3057 3053 3047 3043 3036 3028 3021 3014 3009 3004 2999 2994 2990 2985 2979 2973 2967 2960 2952 2945 2939 2932 2926 2921 2917 2914 2912 2913 2915 2916 2918 2920 2922 2925 2927 2929
3082 3080 3076 3072 3069 3065 3059 3055 3050 3046 3041 3034 3027 3020 3014 3008 3002 2997 2992 2988 2983 2976 2970 2963 2955 2947 2940 2932 2925 2920 2914 2910 2906 2905 2906 2908 2912 2915 2918 2921 2924 2927 2930
3081 3078 3074 3071 3067 3063 3057 3054 3049 3043 3039 3031 3025 3018 3012 3006 3001 2996 2991 2986 2980 2974 2969 2960 2950 2943 2936 2927 2921 2915 2909 2904 2900 2898 2899 2902 2906 2911 2915 2919 2923 2927 2930
3080 3077 3073 3069 3066 3062 3057 3052 3046 3041 3037 3030 3024 3018 3012 3006 3000 2995 2990 2985 2979 2972 2966 2957 2946 2939 2931 2923 2919 2915 2910 2904 2899 2895 2895 2898 2902 2907 2912 2917 2922 2926 2930
3079 3076 3072 3068 3065 3061 3056 3051 3045 3041 3036 3030 3024 3017 3011 3005 3000 2994 2989 2983 2977 2970 2962 2954 2945 2937 2930 2923 2920 2916 2911 2907 2901 2897 2894 2895 2900 2905 2910 2916 2921 2926 2930
3078 3075 3072 3067 3065 3061 3055 3050 3045 3040 3035 3029 3023 3016 3010 3004 2999 2993 2989 2983 2977 2969 2960 2951 2943 2936 2930 2926 2923 2919 2914 2910 2905 2901 2898 2897 2900 2905 2910 2916 2921 2926 2931